Location: *
(51.5000°N, 0.1100°W)
Time: 20:38:09
(UTC+00:00)

Cosmos 2369 - Pass Details

Date: 25 May 2024
Orbit: 837 x 856 km, 71.0° (Epoch: 16 June)

Event Time Altitude Azimuth Distance (km) Brightness Sun altitude
Rises 00:47:34 0° 326° (NW) 3,429 7.5 -16.7°
Reaches altitude 10° 00:50:07 10° 320° (NW) 2,492 6.6 -16.6°
Maximum altitude 00:55:30 44° 250° (WSW) 1,175 4.2 -16.4°
Enters shadow 00:58:15 26° 196° (SSW) 1,625 4.6 -16.3°
